{"data":{"norad_id":81497,"epoch":"2026-05-24T00:55:49.436832Z","epoch_age_seconds":158253,"freshness":"FRESH","line1":"1 81497U          26144.03876663  .00002714  00000+0  24227-2 0  9997","line2":"2 81497 100.2990  59.3250 0027941 320.2555  55.7028 13.85372260238761","mean_motion":13.8537226,"eccentricity":0.0027941,"inclination_deg":100.299,"raan_deg":59.325,"arg_perigee_deg":320.2555,"mean_anomaly_deg":55.7028,"bstar":0.0024227,"rev_number":23876,"period_min":103.94318130782,"perigee_km":924.43233553182,"apogee_km":965.35489521666,"semimajor_km":7323.0306153742,"source":"CELESTRAK","updated_at":"2026-05-25T13:38:09.454233Z"}}